Track FOSSASAT2E5 now! 10-day predictions FOSSASAT2E5 is classified as:
1 51001U 22002T 22187.15350284 .00008857 00000-0 42537-3 0 9993 2 51001 97.4885 254.6965 0011853 4.7203 355.4141 15.19018832 26291